Location: La Pernelle
(49.6188°N, 1.2999°W)
Time: 12:19:55
(UTC+00:00)

Meteor 2-20 - Visible Passes

Search period start: 23 October 2021 00:00
Search period end: 02 November 2021 00:00
Orbit: 938 x 959 km, 82.5° (Epoch: 23 October)

Date Brightness Start Highest point End Pass type
(mag) Time Alt. Az. Time Alt. Az. Time Alt. Az.
23 Oct 7.5 03:58:49 10° ESE 04:01:44 14° ENE 04:04:38 10° NE visible
23 Oct 4.7 05:39:27 10° S 05:45:32 78° E 05:51:38 10° NNE visible
23 Oct 7.3 18:13:04 10° NW 18:17:11 19° W 18:21:17 10° WSW visible
24 Oct 6.9 04:14:19 10° SE 04:18:42 21° E 04:23:05 10° NE visible
24 Oct 4.4 05:56:50 10° SSW 06:02:55 73° WNW 06:09:02 10° N visible
24 Oct 7.6 18:31:46 10° NW 18:34:08 12° WNW 18:36:29 10° W visible
25 Oct 6.3 04:30:31 10° SE 04:35:46 31° E 04:41:00 10° NNE visible
26 Oct 5.5 04:47:10 10° SSE 04:52:56 46° E 04:58:42 10° NNE visible
26 Oct 6.5 17:19:34 10° NNW 17:24:51 32° W 17:30:07 10° SSW visible
27 Oct 7.5 03:24:17 10° E 03:26:29 12° ENE 03:28:41 10° NE visible
27 Oct 4.8 05:04:09 10° S 05:10:11 69° E 05:16:14 10° NNE visible
27 Oct 7.1 17:37:28 10° NW 17:41:55 22° W 17:46:21 10° SW visible
28 Oct 7.0 03:39:23 10° ESE 03:43:26 19° E 03:47:28 10° NE visible
28 Oct 4.4 05:21:26 10° SSW 05:27:32 81° W 05:33:39 10° N visible
28 Oct 7.4 17:55:53 10° NW 17:58:54 14° WNW 18:01:55 10° WSW visible
29 Oct 6.4 03:55:27 10° SE 04:00:28 28° E 04:05:30 10° NNE visible
29 Oct 4.5 05:39:02 10° SSW 05:44:59 55° WNW 05:50:58 10° N visible
30 Oct 5.6 04:11:59 10° SSE 04:17:37 41° E 04:23:15 10° NNE visible
30 Oct 4.9 05:56:56 10° SW 06:02:32 38° WNW 06:08:10 10° N visible
31 Oct 7.4 02:50:14 10° E 02:51:16 10° ENE 02:52:18 10° ENE visible
31 Oct 4.9 04:28:52 10° S 04:34:50 62° E 04:40:50 10° NNE visible
31 Oct 5.3 06:15:10 10° WSW 06:20:11 26° WNW 06:25:13 10° N visible
01 Nov 7.0 03:04:33 10° ESE 03:08:11 17° E 03:11:49 10° NE visible
01 Nov 4.4 04:46:04 10° S 04:52:10 90° WNW 04:58:17 10° N visible
01 Nov 7.2 17:20:08 10° NW 17:23:39 16° WNW 17:27:11 10° WSW visible
